Vorticity
3 3 3 3 3 3 3 3 4 4 4 4 3 3 3 3 3 4 5 7 7 7 5 3 3 2 3 3 4 3 3 4 4 6 6 7 7 7 7 7 6 6 6 6 6 6 6 5 5 4 4 4 3 3 3 2 2 2 3 3 3 3 3 3 3 3 3 3 3 3 3 4 4 4 4 4 4 3 3 3 3 3 3 3 3 3 3 3 3 3 3 3 3 3 3 4 4 4 4 4 4 4 4
3 3 3 3 3 3 3 3 4 4 4 4 4 3 3 3 4 4 5 6 7 7 6 4 2 2 2 2 3 3 3 3 4 5 6 7 7 7 6 6 6 6 6 6 6 6 6 5 5 5 4 4 3 3 2 2 2 2 2 3 3 3 3 3 3 3 3 3 3 3 3 3 3 4 4 4 4 3 3 3 3 3 3 3 3 3 3 3 3 3 3 3 3 3 3 3 4 4 4 4 3 3 4
3 3 3 3 3 3 3 4 4 4 4 4 4 3 3 3 4 4 5 6 7 7 6 4 3 1 1 1 1 2 2 2 2 3 5 6 6 6 6 6 6 6 6 6 6 6 5 5 5 5 4 4 3 3 2 2 2 2 2 2 2 2 3 2 2 3 3 3 3 3 3 3 3 3 4 4 3 3 3 3 3 3 3 3 3 3 3 3 3 3 2 2 2 2 3 3 3 3 3 3 3 3 3
3 3 3 3 3 4 4 4 4 4 4 4 4 4 3 4 4 4 5 6 6 7 7 6 4 2 1 0 0 0 0 0 0 1 3 5 6 6 6 6 6 6 6 6 5 5 5 5 5 5 4 4 3 3 2 2 2 2 2 2 2 2 2 2 2 2 2 2 3 3 3 3 3 3 3 3 3 3 3 3 3 3 3 3 3 3 3 3 3 3 2 2 2 2 2 3 3 3 3 3 2 2 2
4 4 4 4 4 4 4 4 4 4 4 4 4 4 3 4 4 4 5 5 6 6 7 7 6 4 2 1 -0 -1 -1 -1 -1 -1 0 3 4 6 6 6 6 6 6 6 5 5 5 5 5 5 4 4 3 3 2 2 2 2 2 2 2 2 2 2 2 2 2 2 2 2 3 3 3 3 3 3 3 3 3 3 3 3 3 3 3 3 3 3 3 3 3 2 2 2 2 2 2 2 2 2 2 1 1
4 4 4 4 4 4 5 5 5 5 5 4 4 4 3 4 4 4 4 5 5 6 7 7 7 6 5 3 1 -0 -1 -2 -2 -2 -2 -0 2 4 5 6 6 6 6 6 5 5 5 5 5 5 4 4 4 3 3 2 2 2 2 2 2 2 2 2 2 2 2 2 2 2 2 2 2 3 3 3 3 3 3 3 3 3 3 3 3 3 3 3 3 3 3 2 2 2 2 2 2 2 2 1 1 1 1
5 5 5 5 5 5 5 5 5 5 5 4 4 4 3 3 3 4 4 4 4 5 6 7 7 7 7 6 4 2 0 -1 -2 -3 -3 -2 -1 1 3 5 5 6 6 6 6 5 5 5 5 5 5 4 4 4 3 3 3 2 2 2 2 2 2 2 2 2 2 2 2 2 2 2 2 2 2 3 3 3 3 3 3 3 3 3 3 3 3 3 3 3 2 2 2 2 1 1 1 1 2 2 2 2 2
4 4 5 5 5 6 6 6 6 5 5 4 4 3 3 3 3 3 3 4 4 4 5 6 6 7 8 7 6 5 3 1 -0 -2 -3 -3 -2 -0 2 3 4 5 5 6 6 6 5 5 5 5 5 4 4 4 4 3 3 3 2 2 2 2 2 2 2 2 2 2 2 2 2 2 2 2 2 3 3 3 3 3 3 3 3 3 3 3 3 3 3 2 2 2 2 1 1 1 1 2 2 3 3 3 3
5 5 6 6 6 6 6 6 6 6 5 4 4 3 3 3 3 3 3 3 3 4 4 4 5 6 7 7 7 7 6 4 3 1 -1 -2 -2 -1 1 2 3 4 5 5 6 6 6 6 5 5 5 5 4 4 4 4 3 3 3 3 2 2 2 2 2 2 2 2 2 2 2 2 3 3 3 3 3 3 3 3 3 3 3 3 3 3 3 3 3 2 2 2 1 1 1 1 1 2 2 3 3 3 3
6 6 7 7 7 7 6 6 6 5 5 4 4 3 3 3 3 3 3 3 3 3 3 3 4 4 5 6 6 7 7 6 5 4 2 1 0 0 1 2 3 4 5 5 6 6 6 6 6 6 5 5 5 4 4 4 4 3 3 3 3 3 2 2 2 2 2 2 2 2 3 3 3 3 3 3 3 3 3 3 3 3 3 3 3 3 3 3 3 2 2 1 1 1 1 1 1 2 2 2 3 3 2
6 7 7 7 7 7 6 6 5 5 4 4 3 3 3 3 3 3 3 3 3 3 3 3 3 3 3 4 5 6 6 7 6 6 5 4 3 3 2 3 3 4 5 5 5 6 6 6 6 6 6 5 5 5 4 4 4 4 3 3 3 3 3 2 2 2 2 2 2 2 3 3 3 3 3 3 3 3 4 4 4 4 4 4 3 3 3 3 3 2 2 2 1 1 1 1 2 2 2 2 2 2 2
5 6 7 7 7 6 6 5 5 4 4 4 3 3 3 2 2 2 2 2 2 2 2 2 2 2 2 3 3 4 5 6 6 6 6 6 5 4 4 4 4 4 5 5 6 6 6 6 6 6 6 6 6 5 5 4 4 4 4 3 3 3 3 3 3 3 3 3 3 3 3 3 3 3 3 3 4 4 4 4 4 4 4 4 4 4 4 4 3 3 3 2 2 2 2 2 2 2 2 2 2 2 2
4 6 7 7 7 6 6 5 4 4 4 4 3 3 3 3 2 2 2 2 2 2 2 2 2 2 2 2 2 3 4 4 5 6 6 6 6 5 5 5 5 5 5 5 6 6 6 6 6 6 7 6 6 6 5 5 5 4 4 4 4 4 3 3 3 3 3 3 3 3 3 3 3 3 4 4 4 4 4 4 4 4 4 4 4 4 4 4 4 4 3 3 2 2 2 2 2 2 2 2 2 2 2
5 6 7 7 6 6 5 4 4 4 4 4 4 3 3 3 3 3 2 2 2 2 2 2 2 2 2 2 2 2 3 3 4 4 5 5 6 6 5 5 5 5 5 5 6 6 6 6 6 6 7 7 7 6 6 6 5 5 5 4 4 4 4 4 4 4 4 4 4 4 4 4 4 4 4 4 4 4 4 4 4 4 4 4 4 4 4 4 4 4 4 3 3 2 2 2 2 2 2 2 2 2 1
6 6 6 6 6 5 4 4 4 4 4 4 4 4 4 4 3 3 3 3 2 2 2 2 2 2 2 2 2 2 2 2 3 3 4 5 5 5 5 5 4 4 4 5 5 6 6 6 6 6 6 7 7 7 6 6 6 5 5 5 5 5 5 5 5 5 4 4 4 4 4 4 4 4 4 4 4 4 4 4 4 4 4 4 4 4 4 4 4 4 3 3 2 2 2 2 2 2 2 2 2 1 1
6 6 6 6 5 5 4 4 3 3 4 4 4 4 4 4 4 4 4 3 3 3 3 2 2 2 2 2 2 2 2 2 3 3 3 4 4 5 4 4 4 4 4 4 5 5 6 6 6 6 6 6 7 7 7 6 6 6 6 6 6 5 5 5 5 5 5 5 5 4 4 4 4 4 4 4 4 4 4 3 4 4 4 4 4 4 4 4 4 3 3 2 2 1 2 2 2 2 2 2 1 1 0
6 5 5 5 4 4 4 4 4 4 4 4 4 4 4 5 5 4 4 4 4 3 3 3 3 3 3 3 3 3 3 3 3 3 3 4 4 4 4 4 4 3 3 3 4 4 5 5 5 6 6 6 6 6 6 6 6 6 6 6 6 6 6 6 5 5 5 5 5 4 4 4 4 4 4 4 4 3 3 3 3 3 3 3 4 4 4 4 4 3 2 2 1 1 2 2 2 2 2 1 1 1 0
5 4 4 4 3 4 4 4 4 4 4 4 4 4 4 5 5 5 5 4 4 4 4 4 3 3 3 3 3 3 3 3 3 3 3 3 4 4 4 4 4 3 3 3 3 3 4 4 4 5 5 5 6 6 6 6 6 6 6 6 6 6 6 5 5 5 5 5 4 4 4 4 4 4 4 4 4 4 4 4 4 4 4 4 4 4 4 4 3 3 2 2 2 2 2 3 3 2 2 2 2 1 1
4 4 3 3 2 3 3 4 4 4 4 4 4 4 4 5 5 5 5 5 5 4 4 4 4 3 3 3 3 3 3 3 3 3 3 4 4 4 4 4 4 4 3 3 3 3 3 3 4 4 4 5 5 5 5 6 6 6 6 6 6 6 5 5 5 5 5 4 4 4 4 4 4 4 4 4 4 4 4 4 4 5 5 5 5 5 5 4 3 2 2 2 2 3 4 4 4 3 3 3 2 2 2
4 4 3 2 2 2 2 3 4 4 5 4 4 4 4 4 4 5 5 5 5 4 4 4 4 4 3 3 3 3 3 3 3 3 3 4 4 4 4 4 4 4 4 3 3 3 3 3 3 3 3 4 4 4 5 5 5 5 6 6 6 5 5 5 5 5 5 5 5 4 4 5 5 5 5 5 5 5 5 5 5 6 6 5 5 5 5 4 3 2 2 3 4 4 5 4 4 4 3 3 2 2 2
6 5 4 3 3 2 2 3 3 4 4 5 4 4 4 4 4 4 4 4 4 4 4 4 4 3 3 3 3 3 3 3 3 3 3 3 4 4 4 4 5 5 4 3 3 3 2 3 3 3 3 3 3 4 4 4 4 5 5 5 5 5 5 5 5 5 5 5 5 5 5 5 6 6 6 6 6 6 6 6 6 6 6 6 5 5 4 2 2 2 2 4 4 5 5 4 3 2 2 2 2 3 3
6 6 5 5 4 4 4 3 3 4 5 5 5 5 4 4 4 4 4 4 4 4 4 4 4 3 3 3 3 3 4 3 3 3 3 3 3 3 4 4 5 5 5 4 4 3 3 3 3 3 3 3 3 3 3 3 4 4 4 5 5 5 6 6 6 6 6 6 6 6 6 6 6 7 6 6 6 6 6 6 6 6 5 5 4 3 1 1 1 2 3 4 4 4 3 2 1 1 1 2 3 3 3
1 3 4 4 5 5 5 5 5 5 6 6 5 5 4 3 3 3 3 3 3 3 3 3 4 4 3 3 3 4 4 4 4 3 3 3 3 3 3 4 4 5 5 5 4 3 3 3 2 3 3 3 3 3 3 3 3 3 4 4 5 5 6 6 6 6 6 6 7 7 7 7 7 7 7 6 6 6 6 5 5 5 4 3 2 0 -1 -0 1 2 3 3 3 1 -0 -1 -0 0 1 3 3 4 4
-2 -0 2 3 4 6 6 7 7 7 7 6 6 5 4 3 3 2 2 2 2 3 3 3 4 4 4 4 4 4 4 4 4 4 4 3 3 3 3 3 4 4 4 4 4 3 3 2 2 2 2 3 3 3 3 3 3 3 3 4 5 5 6 6 6 7 7 7 7 7 7 7 7 7 6 6 6 5 5 5 4 4 3 1 -0 -1 -1 0 2 3 4 2 1 -1 -1 -1 -0 0 1 2 3 3 3
2 2 3 4 6 7 8 8 9 9 8 7 6 5 4 3 2 2 2 2 2 3 3 4 4 4 4 4 4 4 4 4 5 5 4 4 4 3 3 3 3 3 3 3 3 3 3 2 2 2 2 2 3 3 4 4 4 4 4 4 5 5 6 6 7 7 7 7 7 7 7 7 6 6 6 6 5 5 4 4 3 2 0 -1 -2 -1 0 2 4 4 3 1 -0 -1 -1 -0 0 0 -0 0 1 2 2
9 7 7 8 8 8 8 9 9 8 7 6 5 4 3 3 2 2 2 2 3 3 4 4 5 5 4 4 4 4 4 4 5 5 5 5 4 4 3 3 3 3 3 3 3 3 3 3 2 2 2 2 3 4 4 5 5 5 5 5 5 6 6 6 7 7 7 7 7 6 6 6 6 6 6 6 5 5 4 3 2 0 -1 -2 -1 1 3 4 4 3 2 0 -0 -0 1 1 -0 -1 -2 -1 -0 1 2
13 12 10 10 9 8 7 7 7 7 6 5 4 4 3 3 2 2 2 2 3 4 5 5 5 5 5 4 4 4 4 4 4 4 5 5 5 4 4 3 3 3 3 4 4 5 5 4 4 3 3 3 3 4 4 5 6 6 6 6 5 5 6 6 6 6 6 6 5 5 5 5 5 5 5 5 5 5 4 2 1 -1 -2 -1 0 3 4 4 3 1 -0 -1 -0 0 1 -0 -2 -3 -2 -1 0 2 3
11 11 9 8 8 6 5 4 3 4 4 3 3 3 2 2 2 2 2 2 3 4 5 5 5 5 5 4 4 4 4 3 3 4 4 4 5 5 4 3 3 2 2 3 4 5 5 5 4 4 3 3 3 4 4 5 6 6 6 6 6 6 5 5 5 5 5 4 4 4 4 4 4 4 4 4 4 3 2 1 -1 -2 -3 -1 2 4 4 3 1 -0 -1 -1 -0 -0 -1 -3 -3 -3 -1 1 3 4 5
6 6 5 5 5 4 2 0 -0 -0 -0 0 1 1 2 2 2 2 3 3 3 3 4 4 5 5 5 4 4 4 4 3 3 3 3 4 4 4 4 4 3 2 2 2 3 3 4 4 4 4 3 3 3 3 3 4 5 6 6 6 6 6 5 5 5 4 4 4 4 4 3 3 3 3 2 2 1 1 -0 -2 -3 -4 -3 0 2 3 3 1 -0 -1 -1 -0 -1 -2 -4 -3 -2 1 3 4 5 5 6
3 3 2 2 2 2 1 -1 -2 -2 -3 -2 -1 -1 1 1 2 3 3 3 3 3 3 3 4 4 4 4 4 4 4 4 4 4 4 3 4 4 4 4 3 2 2 2 2 2 3 3 4 4 4 4 3 3 3 4 4 5 6 6 6 6 5 5 5 4 4 4 4 4 4 3 3 2 2 1 -0 -2 -3 -4 -4 -3 -1 2 3 2 1 -0 -0 -0 -0 -0 -1 -2 -1 2 4 6 8 7 6 6 6
8 7 6 5 5 5 3 1 -0 -1 -1 -1 -2 -2 -1 -0 1 2 3 3 3 3 2 2 2 2 3 3 3 4 4 4 4 4 4 4 4 4 4 4 4 3 3 2 2 2 2 3 4 4 5 4 4 4 4 4 4 5 6 6 6 6 5 5 5 4 4 4 4 4 4 3 3 2 2 0 -2 -4 -5 -4 -3 -1 1 2 2 2 1 1 1 1 0 -0 1 3 5 7 9 10 11 10 8 6 5
15 14 13 12 11 11 10 7 6 4 3 3 2 1 -0 -0 0 1 2 3 3 2 2 1 1 1 1 2 2 3 4 4 5 5 5 4 4 4 4 4 4 4 3 3 3 3 3 3 4 5 5 5 5 5 5 5 5 5 6 6 6 6 6 6 5 4 4 3 3 2 2 2 2 2 1 -1 -2 -3 -3 -2 -1 0 1 2 3 3 3 2 1 1 0 2 5 8 9 9 10 12 14 13 10 6 2
14 15 16 16 16 16 15 14 12 10 9 8 7 6 4 4 3 3 2 3 2 2 1 0 -0 -1 -1 -0 0 2 3 4 4 5 5 5 5 5 4 4 4 4 4 3 3 3 3 4 4 5 5 6 6 6 6 6 6 6 6 6 6 6 6 5 5 4 4 3 2 1 1 1 1 1 0 -0 -0 -0 0 0 0 1 2 2 3 3 3 1 -0 -0 2 6 8 8 6 6 9 13 17 16 12 6 0
11 13 14 15 16 16 17 17 15 14 12 11 11 10 10 9 8 7 5 4 2 1 -0 -1 -2 -3 -3 -2 -1 0 2 3 4 4 5 5 5 5 5 5 4 4 4 4 4 4 4 4 4 5 6 7 7 7 7 7 6 6 6 6 5 5 4 4 3 3 3 2 2 1 0 0 -0 -0 0 1 1 1 1 0 -0 0 2 3 3 2 1 -1 -0 2 6 7 7 4 2 3 6 11 16 16 12 6 1
10 11 12 12 11 12 15 16 15 14 12 11 10 10 10 11 11 10 9 6 4 1 -1 -2 -3 -3 -3 -2 -1 0 1 2 3 4 4 4 4 4 4 4 4 4 4 4 4 4 4 5 5 6 6 7 8 8 7 6 6 5 4 4 4 3 2 2 1 1 1 1 1 1 1 1 -0 -1 -0 -0 -1 -1 -1 -1 -0 1 3 4 3 2 0 1 4 7 9 7 4 1 -1 1 3 6 9 10 8 5 2
9 10 10 8 8 9 12 15 16 15 13 11 9 7 7 10 12 14 14 11 8 5 2 -0 -1 -1 -0 1 2 3 3 3 3 3 3 3 3 3 3 3 3 4 4 5 5 5 5 6 6 6 7 7 7 7 6 4 3 2 2 2 2 2 1 1 1 0 0 0 0 0 0 -1 -1 -1 -1 -1 -1 -0 0 1 2 3 5 5 4 4 4 8 11 11 8 4 0 -2 -2 -1 0 1 2 3 3 3 3
8 8 7 6 6 8 11 15 17 18 17 14 11 10 11 13 16 17 17 16 14 11 9 6 5 4 4 5 6 6 6 5 4 4 3 2 2 2 1 2 3 3 4 5 5 5 6 6 6 6 6 5 5 5 4 3 2 1 -0 -0 0 0 1 1 1 1 1 0 0 -0 -1 -0 -0 0 1 1 2 2 3 3 4 4 5 6 8 10 13 13 11 6 1 -0 -1 -2 -2 -1 -0 0 0 1 2 3 4
7 6 7 7 7 8 10 14 17 19 20 19 19 19 18 16 15 15 16 16 16 15 14 12 11 10 10 9 9 8 8 6 5 4 3 2 2 1 1 1 2 3 3 4 4 5 5 5 5 4 4 4 4 4 4 3 3 2 1 0 0 1 1 2 1 1 1 1 1 1 1 1 1 1 2 2 2 2 3 2 2 3 5 10 13 15 14 7 2 -3 -4 -2 -2 -1 -1 0 1 2 3 3 4 4 6
6 6 6 7 7 7 8 12 15 17 18 20 22 21 16 10 8 9 11 12 14 15 15 14 13 13 12 12 11 10 9 8 7 6 5 4 3 2 2 1 2 2 3 3 3 3 3 4 4 4 4 3 3 3 3 4 4 4 3 3 3 3 3 3 2 1 0 0 1 2 2 2 2 2 2 2 2 2 1 1 1 2 4 8 8 6 0 -4 -6 -5 -3 -2 -1 -1 -0 1 3 4 5 5 6 6 7
5 6 6 6 5 6 8 11 11 10 9 12 12 11 6 3 3 5 8 9 11 13 14 14 13 13 12 12 11 10 9 8 7 7 6 6 5 4 3 2 2 2 2 2 2 2 2 3 3 4 4 4 4 3 4 4 5 5 5 6 6 6 5 4 2 1 0 0 1 2 2 2 2 2 2 2 1 1 0 0 0 0 0 -1 -3 -6 -7 -6 -4 -2 0 1 0 0 1 2 4 5 6 7 7 7 7
4 5 6 5 5 5 7 9 8 5 3 4 5 5 3 3 4 6 7 9 10 12 14 14 14 13 12 11 10 9 9 8 7 7 7 7 6 5 5 4 4 4 3 3 3 3 3 2 3 3 4 4 4 4 4 5 5 5 5 5 5 4 3 2 1 1 1 1 2 2 2 3 2 2 2 1 1 1 1 0 -0 -1 -2 -4 -5 -6 -5 -3 -1 1 2 2 2 1 1 2 4 6 9 8 7 6 6
4 4 5 5 5 6 7 8 7 4 3 4 5 5 4 5 6 7 8 9 10 11 14 15 16 15 13 12 11 10 9 8 8 7 7 7 7 8 8 8 8 8 7 6 5 4 4 3 3 3 3 4 4 4 4 4 4 4 4 3 1 -1 -2 -2 -1 -0 0 1 1 2 2 2 2 2 1 1 1 2 2 2 2 1 -0 -1 -3 -3 -4 -2 -1 0 1 2 2 2 2 3 5 7 10 8 7 7 8
4 5 4 4 5 6 6 7 6 5 5 6 5 5 5 5 6 7 8 9 10 11 13 15 15 15 15 15 14 12 11 10 9 9 8 8 8 9 9 9 9 9 8 7 6 5 4 4 3 3 3 3 3 4 4 4 4 3 2 0 -2 -3 -4 -4 -2 -1 -0 0 0 0 0 0 0 0 0 1 1 2 3 4 4 4 2 0 -2 -3 -3 -3 -2 -0 1 2 3 3 3 4 6 8 9 8 8 9 12
4 5 5 5 6 6 7 6 5 4 5 4 4 4 4 6 7 8 9 10 11 12 13 13 14 15 17 17 16 14 12 11 10 9 9 8 7 6 6 6 7 7 8 8 8 8 7 7 6 5 4 4 4 4 4 3 2 2 1 -0 -1 -2 -2 -1 -0 0 1 1 0 -0 -1 -1 -1 -1 -0 0 1 2 3 4 5 5 4 1 -1 -2 -2 -2 -1 0 2 3 3 4 4 5 7 9 10 9 10 12 15
4 4 4 5 5 6 6 6 5 4 3 2 2 2 4 5 7 9 11 12 13 12 11 12 15 18 20 19 17 15 13 11 10 9 8 5 4 3 6 7 7 8 8 7 6 7 8 9 10 9 7 5 5 4 4 3 2 1 0 0 1 1 2 3 3 3 3 4 4 5 4 3 2 2 2 2 2 2 2 2 3 4 3 1 -0 -1 -1 -1 0 2 3 4 4 4 4 5 8 10 11 11 13 15 16
3 3 3 3 4 4 4 5 4 3 1 0 0 1 3 6 9 11 12 13 13 13 12 16 19 22 23 22 19 17 14 12 10 9 8 6 5 6 9 9 9 8 5 1 4 10 17 18 18 18 15 11 8 6 5 5 4 4 3 3 3 4 6 6 6 6 7 10 13 15 14 12 9 7 6 5 4 2 0 -1 -1 1 2 2 1 1 0 1 1 2 3 4 3 3 4 7 10 12 13 14 15 16 15
4 3 2 2 2 2 3 2 2 1 -1 -1 -0 1 4 9 11 13 14 15 14 14 15 19 22 24 24 23 21 19 16 14 12 10 10 8 7 6 7 8 8 9 11 15 23 33 41 41 39 35 30 24 18 14 10 10 10 9 8 8 8 8 8 7 7 8 9 13 16 18 17 15 12 10 8 7 5 3 0 -2 -2 0 3 4 4 4 4 4 4 4 4 4 4 5 7 11 13 15 16 16 16 14 12
4 4 3 2 2 2 2 1 0 -0 -1 -1 0 3 6 11 13 15 16 17 17 16 17 19 21 22 23 22 21 19 17 14 12 9 7 7 7 8 9 12 18 26 35 39 43 46 47 45 40 36 33 30 26 22 19 18 17 16 15 13 11 10 8 7 7 6 7 9 11 12 11 10 9 8 8 7 5 3 2 1 1 3 6 8 8 9 9 9 9 9 9 10 11 13 16 17 18 18 17 15 14 11 8
5 4 3 2 2 2 2 1 1 0 0 1 3 5 8 14 16 16 14 15 15 16 16 15 15 16 17 17 17 17 18 14 10 6 5 7 9 7 3 3 9 18 27 29 28 26 21 17 15 16 19 21 21 21 20 19 19 18 16 14 12 11 9 9 8 8 8 9 9 8 8 7 6 6 6 6 5 5 5 5 7 9 11 12 14 15 16 16 16 17 18 19 21 22 23 22 20 17 15 13 10 8 5
5 4 3 3 2 2 2 2 2 2 3 4 6 8 13 18 19 16 12 10 11 11 10 7 4 3 3 4 5 6 8 8 8 7 6 4 -2 -8 -9 -3 2 5 6 5 4 3 2 1 2 5 8 11 13 14 14 13 13 13 13 12 13 13 14 16 16 16 14 12 10 8 7 6 7 7 8 8 9 9 10 12 13 15 16 16 17 18 19 20 21 23 25 25 25 24 22 20 17 14 12 10 8 6 4
5 5 4 4 3 3 3 4 4 5 6 7 9 13 18 20 19 16 12 10 8 6 2 -4 -9 -13 -15 -15 -14 -11 -5 2 5 6 3 -5 -9 -9 -3 4 8 8 4 0 -2 -2 -1 0 2 4 6 7 8 8 8 8 8 9 10 11 13 15 18 19 19 18 15 12 10 8 8 8 9 10 11 12 14 15 16 16 16 17 17 17 18 19 20 22 24 25 26 24 22 20 17 14 12 10 9 8 6 5 4
6 6 6 6 5 5 4 5 6 7 8 9 13 16 19 19 18 16 14 12 8 3 -4 -9 -11 -12 -11 -9 -6 -0 6 8 7 5 2 -3 -4 -2 4 7 9 10 9 6 4 3 2 4 6 8 10 11 12 12 11 10 9 9 9 9 9 10 14 16 16 14 13 11 10 9 9 10 11 13 14 15 16 17 17 17 17 16 16 17 18 20 21 21 22 21 20 17 15 13 10 9 9 8 8 7 6 5 5
6 7 7 7 7 6 6 7 8 8 9 11 14 16 16 15 16 18 19 16 12 9 4 6 10 14 17 18 20 22 22 20 16 9 2 -0 -1 0 3 5 7 8 8 7 6 6 6 8 11 14 16 16 17 18 17 16 14 12 9 6 6 7 10 12 12 12 12 12 11 11 12 13 14 16 16 17 17 17 17 16 16 16 16 17 17 17 17 16 14 13 11 10 8 7 6 6 7 6 6 6 6 6 6
6 6 7 8 8 8 9 9 9 9 8 10 13 13 10 9 11 14 17 14 16 19 18 21 21 19 16 13 13 15 18 19 16 8 -1 -2 -1 2 5 4 5 5 5 5 5 7 9 12 13 15 17 17 19 21 23 23 21 17 13 9 8 8 9 10 11 12 12 13 13 14 15 16 17 18 17 17 16 16 16 15 15 15 15 14 13 11 10 8 7 6 5 5 5 5 5 5 6 6 6 6 6 6 6
6 6 7 8 9 10 11 11 9 7 5 8 11 11 6 4 5 7 9 9 12 16 17 15 11 6 3 2 1 2 4 5 4 1 -2 -1 1 2 3 3 4 4 4 6 8 9 10 9 8 7 8 14 19 23 27 28 27 23 20 15 11 9 9 10 12 13 14 14 14 15 16 17 17 16 15 14 14 13 13 12 12 11 10 9 7 6 4 3 3 3 3 3 4 5 5 5 6 6 6 6 7 8 8
6 6 7 8 10 11 12 11 8 4 1 5 9 9 4 1 1 2 4 3 3 4 5 5 4 3 2 2 3 3 2 2 2 2 3 4 4 5 5 4 4 3 2 4 7 8 4 0 1 3 6 8 12 18 23 25 26 24 22 17 13 10 10 11 12 13 13 13 13 14 14 14 13 12 11 10 10 9 8 8 7 6 5 4 3 2 2 2 2 2 3 4 5 6 6 6 6 7 7 8 9 10 11
5 5 7 9 11 13 13 10 5 1 -1 5 8 6 1 -2 -3 -3 -3 -3 -3 -2 0 2 4 5 5 5 6 6 6 5 5 5 6 7 8 8 7 6 5 3 2 0 -0 0 1 2 3 4 3 4 6 9 12 16 18 19 18 16 13 11 11 11 11 11 11 10 10 9 8 8 7 7 6 6 6 5 5 4 3 3 2 2 1 1 1 2 3 4 5 6 8 9 10 10 10 10 10 10 11 11 12
3 5 6 9 12 13 12 7 2 -1 -1 6 8 6 0 -3 -5 -7 -10 -10 -8 -4 1 3 5 6 7 7 7 7 7 6 7 7 8 8 9 10 10 8 7 6 4 1 -1 -2 -2 1 3 2 -1 -1 0 2 2 4 6 8 11 11 10 8 7 6 6 5 4 4 3 2 2 2 2 3 3 3 3 3 3 3 2 2 2 1 1 2 2 4 5 6 8 9 10 12 12 13 13 13 13 13 12 12 12
4 6 8 9 11 11 10 5 1 -1 2 9 12 10 5 0 -4 -8 -12 -13 -11 -6 -0 4 5 6 5 6 6 6 6 6 7 7 8 9 10 10 10 10 8 7 5 3 1 -1 -4 -5 -4 -4 -5 -5 -8 -11 -7 -6 -3 -1 1 2 2 1 0 -1 -2 -2 -3 -3 -4 -4 -3 -2 -1 -0 1 1 2 2 3 3 3 3 3 3 4 4 5 7 8 9 10 11 11 12 12 13 14 14 14 13 13 12 11
8 10 11 11 10 9 7 3 -0 -1 2 9 13 14 10 6 1 -4 -9 -13 -12 -8 -1 4 6 6 4 5 5 6 6 6 6 6 6 7 9 10 10 10 10 9 7 6 4 2 -1 -5 -5 -4 -4 -5 -5 -7 -10 -9 -8 -5 -3 -2 -2 -1 -1 -2 -3 -4 -4 -3 -3 -2 -2 -1 1 2 3 3 3 4 4 4 4 5 5 6 6 7 9 10 11 12 12 12 12 12 12 13 13 13 13 13 12 12 11
14 15 14 12 10 8 6 4 1 -2 -2 4 8 10 9 7 4 -1 -7 -10 -10 -7 -1 4 6 6 5 5 5 5 5 4 5 5 5 5 7 9 10 10 10 10 10 9 9 8 6 4 4 5 8 8 6 4 0 -2 -2 -1 3 5 4 3 2 2 1 1 1 2 2 3 3 4 5 6 7 7 7 7 7 7 7 7 7 8 9 10 12 13 14 14 15 14 14 14 13 13 13 12 12 12 12 12 12
Height
5857 5857 5857 5857 5858 5858 5858 5858 5859 5859 5860 5860 5860 5860 5861 5861 5861 5862 5862 5862 5862 5862 5862 5862 5863 5863 5863 5863 5863 5864 5864 5864 5864 5864 5864 5864 5864 5864 5864 5864 5864 5864 5864 5864 5864 5864 5864 5865 5865 5865 5865 5865 5865 5865 5865 5865 5865 5865 5865 5865 5865 5865 5865 5865 5865 5864 5864 5864 5864 5864 5864 5864 5864 5864 5863 5863 5863 5863 5862 5862 5862 5862 5862 5862 5861 5861 5861 5861 5860 5860 5860 5860 5860 5859 5859 5859 5859 5858 5858 5857 5857 5857 5856
5856 5856 5856 5856 5857 5857 5857 5857 5858 5858 5858 5859 5859 5859 5860 5860 5860 5861 5861 5861 5861 5861 5862 5862 5862 5862 5862 5862 5862 5863 5863 5863 5863 5863 5863 5863 5863 5863 5863 5863 5863 5863 5863 5863 5863 5863 5863 5864 5864 5864 5864 5864 5864 5864 5864 5864 5864 5864 5864 5864 5864 5864 5864 5864 5864 5863 5863 5863 5863 5863 5863 5863 5863 5863 5862 5862 5862 5862 5862 5861 5861 5861 5861 5861 5860 5860 5860 5860 5860 5859 5859 5859 5859 5859 5858 5858 5858 5857 5857 5857 5856 5856 5856
5854 5855 5855 5855 5856 5856 5856 5857 5857 5857 5857 5858 5858 5858 5859 5859 5859 5859 5860 5860 5860 5860 5861 5861 5861 5861 5861 5861 5862 5862 5862 5862 5862 5862 5862 5862 5862 5862 5862 5862 5862 5862 5862 5862 5862 5862 5863 5863 5863 5863 5863 5863 5863 5863 5863 5863 5863 5863 5863 5863 5863 5863 5863 5863 5863 5862 5862 5862 5862 5862 5862 5862 5862 5862 5862 5862 5861 5861 5861 5861 5860 5860 5860 5860 5860 5859 5859 5859 5859 5858 5858 5858 5858 5857 5857 5857 5857 5857 5857 5856 5856 5855 5855
5853 5853 5854 5854 5854 5855 5855 5855 5856 5856 5856 5857 5857 5857 5857 5858 5858 5858 5859 5859 5859 5859 5859 5860 5860 5860 5860 5860 5860 5861 5861 5861 5861 5862 5862 5862 5862 5862 5862 5862 5862 5862 5862 5862 5862 5862 5862 5862 5862 5862 5862 5862 5862 5862 5862 5862 5862 5862 5862 5862 5862 5862 5862 5862 5862 5862 5862 5862 5862 5861 5861 5861 5861 5861 5861 5861 5861 5860 5860 5860 5859 5859 5859 5859 5859 5858 5858 5858 5858 5858 5857 5857 5857 5857 5857 5857 5856 5856 5856 5855 5855 5855 5854
5851 5852 5852 5853 5853 5853 5854 5854 5854 5855 5855 5855 5856 5856 5856 5857 5857 5857 5857 5858 5858 5858 5858 5859 5859 5859 5859 5859 5859 5860 5860 5860 5860 5860 5861 5861 5861 5861 5861 5861 5861 5861 5861 5861 5861 5861 5861 5861 5861 5861 5861 5861 5861 5861 5861 5862 5862 5862 5862 5861 5861 5861 5861 5861 5861 5861 5861 5861 5860 5860 5860 5860 5860 5860 5860 5860 5860 5859 5859 5859 5859 5858 5858 5858 5858 5857 5857 5857 5857 5857 5857 5856 5856 5856 5856 5855 5855 5855 5855 5854 5854 5854 5853
5850 5851 5851 5851 5852 5852 5852 5853 5853 5853 5854 5854 5855 5855 5855 5856 5856 5856 5856 5857 5857 5857 5857 5857 5858 5858 5858 5858 5858 5858 5859 5859 5859 5859 5859 5860 5860 5860 5860 5860 5860 5860 5860 5860 5860 5860 5860 5860 5860 5860 5860 5860 5860 5860 5860 5860 5861 5861 5860 5860 5860 5860 5860 5860 5860 5860 5860 5860 5859 5859 5859 5859 5859 5859 5859 5859 5859 5858 5858 5858 5858 5857 5857 5857 5857 5857 5857 5856 5856 5856 5856 5855 5855 5855 5855 5854 5854 5854 5853 5853 5853 5853 5852
5849 5849 5850 5850 5850 5851 5851 5852 5852 5852 5852 5853 5853 5853 5854 5854 5855 5855 5855 5856 5856 5856 5856 5856 5857 5857 5857 5857 5857 5857 5857 5858 5858 5858 5858 5858 5859 5859 5859 5859 5859 5859 5859 5859 5859 5859 5859 5859 5859 5859 5859 5859 5859 5859 5859 5859 5859 5859 5859 5859 5859 5859 5859 5859 5859 5859 5859 5859 5858 5858 5858 5858 5858 5858 5858 5858 5858 5857 5857 5857 5857 5857 5857 5856 5856 5856 5856 5855 5855 5855 5855 5854 5854 5854 5854 5853 5853 5853 5852 5852 5852 5852 5851
5847 5847 5849 5848 5849 5849 5850 5850 5851 5851 5851 5852 5852 5852 5852 5853 5853 5853 5854 5854 5854 5855 5855 5855 5855 5856 5856 5856 5856 5856 5857 5857 5857 5857 5857 5857 5857 5857 5857 5858 5858 5858 5858 5858 5858 5858 5858 5858 5858 5858 5858 5858 5858 5858 5858 5858 5858 5858 5858 5858 5858 5858 5858 5858 5858 5858 5858 5858 5857 5857 5857 5857 5857 5857 5857 5857 5857 5857 5856 5856 5856 5856 5856 5855 5855 5855 5855 5854 5854 5854 5854 5853 5853 5853 5852 5852 5852 5852 5851 5851 5851 5850 5850
5845 5846 5847 5847 5847 5848 5848 5849 5849 5850 5850 5850 5851 5851 5851 5852 5852 5852 5852 5853 5853 5853 5854 5854 5854 5854 5855 5855 5855 5855 5855 5856 5856 5856 5856 5856 5856 5857 5857 5857 5857 5857 5857 5857 5857 5857 5857 5857 5857 5857 5857 5857 5857 5857 5857 5857 5857 5857 5857 5857 5857 5857 5857 5857 5857 5857 5857 5857 5857 5857 5856 5856 5856 5856 5856 5856 5856 5856 5855 5855 5855 5855 5855 5854 5854 5854 5853 5853 5853 5853 5852 5852 5852 5852 5852 5851 5851 5851 5850 5850 5849 5849 5849
5843 5844 5845 5845 5846 5846 5847 5847 5848 5848 5848 5849 5849 5849 5850 5850 5851 5851 5851 5852 5852 5852 5852 5853 5853 5853 5853 5854 5854 5854 5854 5854 5855 5855 5855 5855 5855 5855 5855 5855 5856 5856 5856 5856 5856 5856 5856 5856 5856 5856 5856 5856 5856 5856 5856 5856 5856 5856 5856 5856 5856 5856 5856 5856 5856 5856 5856 5856 5856 5856 5855 5855 5855 5855 5855 5855 5854 5854 5854 5854 5854 5854 5854 5853 5853 5853 5852 5852 5852 5852 5852 5852 5851 5851 5851 5850 5850 5849 5849 5849 5848 5848 5847
5842 5842 5843 5843 5844 5845 5845 5846 5846 5847 5847 5847 5848 5848 5848 5849 5849 5850 5850 5850 5851 5851 5851 5852 5852 5852 5852 5852 5853 5853 5853 5853 5853 5853 5854 5854 5854 5854 5854 5854 5854 5854 5854 5854 5854 5854 5855 5855 5855 5855 5855 5855 5855 5855 5855 5855 5855 5855 5855 5855 5855 5855 5855 5855 5855 5855 5855 5855 5855 5854 5854 5854 5854 5854 5854 5853 5853 5853 5853 5853 5853 5853 5852 5852 5852 5852 5852 5851 5851 5851 5851 5850 5850 5850 5849 5849 5849 5848 5848 5847 5847 5847 5846
5840 5841 5841 5842 5842 5843 5843 5844 5845 5845 5846 5846 5846 5847 5847 5847 5848 5848 5849 5849 5849 5850 5850 5850 5851 5851 5851 5851 5852 5852 5852 5852 5852 5852 5852 5852 5852 5853 5853 5853 5853 5853 5853 5853 5853 5853 5853 5853 5853 5854 5854 5854 5854 5854 5854 5854 5854 5854 5854 5854 5854 5854 5854 5854 5854 5854 5853 5853 5853 5853 5853 5853 5853 5853 5852 5852 5852 5852 5852 5852 5852 5852 5851 5851 5851 5851 5850 5850 5850 5850 5849 5849 5849 5848 5848 5848 5847 5847 5847 5846 5846 5845 5845
5838 5839 5840 5840 5841 5841 5842 5842 5843 5843 5844 5844 5845 5845 5846 5846 5846 5847 5847 5848 5848 5848 5849 5849 5849 5850 5850 5850 5850 5851 5851 5851 5851 5851 5851 5851 5851 5852 5852 5852 5852 5852 5852 5852 5852 5852 5852 5852 5852 5852 5852 5852 5852 5852 5852 5852 5852 5852 5852 5852 5852 5852 5852 5852 5852 5852 5852 5852 5852 5852 5852 5852 5852 5852 5851 5851 5851 5851 5851 5851 5850 5850 5850 5850 5850 5849 5849 5849 5849 5848 5848 5848 5847 5847 5847 5847 5846 5846 5845 5845 5844 5844 5843
5837 5837 5838 5838 5839 5840 5840 5841 5841 5842 5842 5843 5843 5844 5844 5844 5845 5845 5846 5846 5847 5847 5847 5848 5848 5848 5848 5849 5849 5849 5849 5850 5850 5850 5850 5850 5850 5850 5850 5850 5850 5851 5851 5851 5851 5851 5851 5851 5851 5851 5851 5851 5851 5851 5851 5851 5851 5851 5851 5851 5851 5851 5851 5851 5851 5851 5851 5851 5851 5851 5851 5851 5850 5850 5850 5850 5850 5850 5850 5849 5849 5849 5849 5848 5848 5848 5848 5847 5847 5847 5847 5847 5846 5846 5845 5845 5845 5844 5844 5843 5843 5842 5842
5835 5835 5836 5837 5837 5838 5838 5839 5840 5840 5841 5841 5842 5842 5842 5843 5843 5844 5844 5845 5845 5846 5846 5846 5847 5847 5847 5847 5848 5848 5848 5848 5848 5849 5849 5849 5849 5849 5849 5849 5849 5849 5849 5849 5849 5849 5850 5850 5850 5850 5850 5850 5850 5850 5850 5850 5850 5850 5850 5850 5850 5850 5850 5850 5850 5850 5850 5850 5850 5849 5849 5849 5849 5849 5849 5849 5849 5848 5848 5848 5848 5848 5847 5847 5847 5847 5847 5846 5846 5846 5845 5845 5845 5844 5844 5844 5843 5843 5842 5842 5842 5841 5841
5833 5833 5834 5835 5835 5836 5837 5837 5838 5838 5839 5840 5840 5840 5841 5841 5842 5842 5842 5843 5844 5844 5844 5845 5845 5845 5846 5846 5846 5847 5847 5847 5847 5847 5847 5847 5847 5848 5848 5848 5848 5848 5848 5848 5848 5848 5848 5848 5848 5849 5849 5849 5849 5849 5849 5849 5849 5849 5849 5849 5849 5849 5849 5849 5849 5848 5848 5848 5848 5848 5848 5848 5848 5848 5847 5847 5847 5847 5847 5847 5847 5846 5846 5846 5846 5845 5845 5845 5845 5844 5844 5844 5843 5843 5842 5842 5842 5842 5841 5841 5840 5840 5839
5831 5831 5832 5833 5833 5834 5835 5836 5836 5837 5837 5838 5838 5839 5839 5839 5840 5840 5841 5841 5842 5842 5843 5843 5843 5844 5844 5844 5845 5845 5845 5846 5846 5846 5846 5846 5846 5846 5847 5847 5847 5847 5847 5847 5847 5847 5847 5847 5847 5847 5847 5847 5847 5847 5847 5847 5847 5847 5847 5847 5847 5847 5847 5847 5847 5847 5847 5847 5847 5847 5847 5847 5847 5847 5846 5846 5846 5846 5846 5845 5845 5845 5845 5844 5844 5844 5844 5843 5843 5843 5842 5842 5842 5842 5841 5841 5840 5840 5839 5839 5838 5838 5837
5828 5829 5830 5831 5832 5832 5833 5834 5834 5835 5836 5836 5837 5837 5837 5838 5838 5838 5839 5839 5840 5841 5841 5841 5842 5842 5842 5843 5843 5843 5844 5844 5844 5844 5844 5845 5845 5845 5845 5845 5845 5846 5846 5846 5846 5846 5846 5846 5846 5846 5846 5846 5846 5846 5846 5846 5846 5846 5846 5846 5846 5846 5846 5846 5846 5846 5846 5846 5846 5846 5846 5845 5845 5845 5845 5845 5844 5844 5844 5844 5844 5843 5843 5843 5843 5842 5842 5842 5842 5841 5841 5841 5840 5840 5840 5839 5839 5838 5838 5837 5837 5837 5836
5826 5827 5827 5829 5830 5830 5831 5832 5832 5833 5834 5834 5835 5835 5836 5836 5836 5837 5837 5838 5838 5839 5839 5840 5840 5840 5841 5841 5842 5842 5842 5842 5842 5843 5843 5843 5843 5843 5844 5844 5844 5844 5844 5844 5844 5844 5845 5845 5845 5845 5845 5845 5845 5845 5845 5845 5845 5845 5845 5845 5845 5845 5845 5845 5845 5845 5845 5845 5844 5844 5844 5844 5844 5844 5843 5843 5843 5843 5842 5842 5842 5842 5842 5842 5841 5841 5841 5841 5840 5840 5840 5839 5839 5838 5838 5838 5837 5837 5836 5836 5835 5835 5834
5824 5825 5826 5827 5828 5829 5829 5830 5831 5831 5832 5832 5833 5833 5834 5834 5835 5835 5835 5836 5837 5837 5837 5838 5838 5839 5839 5840 5840 5840 5840 5841 5841 5841 5842 5842 5842 5842 5842 5842 5842 5843 5843 5843 5843 5843 5843 5843 5843 5843 5843 5843 5843 5843 5843 5843 5843 5843 5843 5843 5843 5843 5843 5843 5843 5843 5843 5843 5843 5843 5843 5842 5842 5842 5842 5842 5842 5842 5841 5841 5841 5841 5840 5840 5840 5840 5839 5839 5839 5838 5838 5838 5837 5837 5837 5836 5836 5835 5835 5834 5834 5833 5833
5822 5823 5824 5825 5826 5827 5828 5828 5829 5829 5830 5830 5831 5832 5832 5832 5833 5833 5834 5834 5835 5835 5836 5836 5837 5837 5837 5838 5838 5838 5839 5839 5839 5839 5840 5840 5840 5840 5841 5841 5841 5841 5841 5841 5842 5842 5842 5842 5842 5842 5842 5842 5842 5842 5842 5842 5842 5842 5842 5842 5842 5842 5842 5842 5842 5842 5842 5842 5842 5842 5841 5841 5841 5841 5841 5840 5840 5840 5840 5839 5839 5839 5839 5838 5838 5838 5838 5837 5837 5837 5837 5836 5836 5836 5835 5835 5834 5834 5833 5832 5832 5832 5831
5820 5821 5822 5823 5824 5825 5826 5827 5827 5827 5828 5828 5829 5830 5830 5831 5831 5832 5832 5832 5833 5833 5834 5834 5835 5835 5836 5836 5836 5837 5837 5837 5837 5838 5838 5838 5838 5839 5839 5839 5839 5839 5840 5840 5840 5840 5840 5840 5841 5841 5841 5841 5841 5841 5841 5841 5841 5841 5841 5841 5841 5841 5841 5841 5840 5840 5840 5840 5840 5840 5840 5840 5839 5839 5839 5839 5839 5838 5838 5838 5838 5837 5837 5837 5837 5837 5836 5836 5836 5835 5835 5835 5834 5834 5834 5833 5833 5832 5832 5831 5830 5830 5829
5817 5819 5820 5822 5822 5823 5824 5825 5825 5826 5826 5827 5827 5828 5828 5829 5829 5830 5830 5831 5831 5832 5832 5832 5833 5833 5834 5834 5835 5835 5835 5835 5836 5836 5836 5837 5837 5837 5837 5837 5837 5838 5838 5838 5838 5838 5839 5839 5839 5839 5839 5839 5839 5839 5839 5839 5839 5839 5839 5839 5839 5839 5839 5839 5839 5839 5839 5839 5839 5838 5838 5838 5838 5838 5838 5837 5837 5837 5837 5836 5836 5836 5836 5835 5835 5835 5835 5834 5834 5834 5834 5833 5833 5832 5832 5832 5831 5831 5830 5829 5828 5828 5827
5816 5817 5818 5820 5821 5821 5822 5822 5823 5824 5824 5825 5826 5826 5826 5827 5827 5828 5828 5829 5829 5830 5830 5831 5831 5831 5832 5832 5833 5833 5833 5834 5834 5834 5834 5835 5835 5835 5836 5836 5836 5836 5836 5836 5837 5837 5837 5837 5837 5837 5837 5837 5838 5838 5837 5837 5837 5838 5838 5838 5838 5837 5837 5837 5837 5837 5837 5837 5837 5837 5837 5837 5837 5836 5836 5836 5835 5835 5835 5835 5834 5834 5834 5834 5833 5833 5833 5833 5832 5832 5832 5832 5831 5831 5830 5830 5829 5829 5828 5827 5827 5826 5825
5814 5815 5816 5817 5818 5819 5820 5821 5821 5822 5822 5823 5824 5824 5825 5825 5826 5826 5827 5827 5827 5828 5828 5828 5829 5829 5830 5830 5831 5831 5832 5832 5832 5832 5833 5833 5833 5834 5834 5834 5834 5834 5834 5835 5835 5835 5835 5835 5836 5836 5836 5836 5836 5836 5836 5836 5836 5836 5836 5836 5836 5836 5836 5836 5836 5836 5836 5836 5835 5835 5835 5835 5835 5834 5834 5834 5834 5833 5833 5833 5833 5832 5832 5832 5832 5832 5832 5831 5831 5831 5830 5830 5829 5829 5828 5828 5827 5827 5826 5825 5825 5824 5823
5812 5813 5814 5815 5816 5817 5818 5818 5819 5820 5820 5821 5822 5822 5823 5823 5824 5824 5825 5825 5826 5826 5826 5827 5827 5827 5828 5828 5829 5829 5830 5830 5830 5831 5831 5831 5832 5832 5832 5832 5832 5832 5833 5833 5833 5833 5833 5834 5834 5834 5834 5834 5834 5834 5834 5834 5834 5834 5834 5834 5834 5834 5834 5834 5834 5834 5834 5834 5834 5833 5833 5833 5833 5833 5832 5832 5832 5832 5832 5831 5831 5831 5830 5830 5830 5830 5830 5830 5829 5829 5828 5828 5827 5827 5827 5826 5826 5825 5824 5823 5822 5822 5821
5810 5811 5812 5813 5814 5815 5816 5817 5817 5818 5819 5819 5820 5820 5821 5822 5822 5823 5823 5823 5824 5824 5824 5825 5825 5825 5826 5826 5827 5827 5828 5828 5828 5829 5829 5829 5830 5830 5830 5831 5831 5831 5831 5831 5831 5832 5832 5832 5832 5832 5832 5832 5832 5832 5832 5832 5832 5832 5832 5832 5832 5832 5832 5832 5832 5832 5832 5832 5832 5832 5832 5831 5831 5831 5831 5830 5830 5830 5829 5829 5829 5829 5828 5828 5828 5828 5828 5828 5827 5827 5827 5826 5826 5825 5825 5824 5823 5823 5822 5821 5820 5819 5819
5807 5808 5810 5811 5812 5812 5813 5814 5816 5816 5817 5817 5818 5818 5819 5820 5820 5821 5822 5822 5822 5822 5823 5823 5823 5823 5824 5824 5825 5825 5826 5826 5827 5827 5827 5828 5828 5828 5828 5829 5829 5829 5829 5829 5830 5830 5830 5830 5830 5830 5830 5830 5830 5831 5831 5831 5831 5831 5831 5831 5831 5831 5831 5831 5831 5830 5830 5830 5830 5830 5830 5829 5829 5829 5829 5828 5828 5828 5828 5827 5827 5827 5827 5827 5827 5827 5826 5826 5825 5825 5825 5824 5824 5823 5822 5822 5821 5820 5820 5819 5818 5817 5816
5805 5806 5807 5808 5809 5810 5811 5812 5813 5814 5815 5816 5816 5817 5817 5818 5818 5819 5819 5820 5820 5821 5821 5821 5821 5822 5822 5822 5823 5823 5824 5824 5825 5825 5826 5826 5826 5826 5827 5827 5827 5827 5827 5827 5828 5828 5828 5828 5828 5828 5828 5828 5828 5828 5828 5828 5829 5829 5828 5828 5828 5828 5828 5828 5828 5828 5828 5828 5828 5827 5827 5827 5827 5827 5827 5827 5826 5826 5826 5825 5825 5825 5825 5825 5825 5825 5824 5824 5823 5823 5822 5822 5822 5821 5820 5819 5819 5818 5817 5817 5816 5815 5814
5802 5804 5805 5806 5807 5808 5809 5810 5811 5812 5813 5814 5814 5815 5815 5816 5816 5817 5817 5818 5818 5819 5819 5819 5820 5820 5820 5821 5821 5821 5822 5822 5823 5823 5823 5824 5824 5824 5825 5825 5825 5825 5826 5826 5826 5826 5826 5826 5826 5826 5827 5827 5827 5827 5827 5827 5827 5827 5827 5827 5827 5827 5827 5827 5827 5826 5826 5826 5826 5826 5825 5825 5825 5825 5824 5824 5824 5824 5823 5823 5823 5823 5823 5823 5823 5822 5822 5822 5821 5821 5820 5820 5819 5818 5817 5817 5816 5816 5815 5814 5813 5812 5811
5801 5802 5802 5804 5805 5806 5807 5808 5809 5810 5811 5811 5812 5812 5813 5813 5814 5815 5815 5816 5816 5817 5817 5817 5818 5818 5818 5819 5819 5819 5820 5820 5821 5821 5821 5822 5822 5822 5823 5823 5823 5823 5824 5824 5824 5824 5824 5824 5824 5824 5824 5825 5825 5825 5825 5825 5825 5825 5824 5824 5824 5824 5824 5824 5824 5824 5824 5824 5824 5823 5823 5823 5823 5822 5822 5822 5822 5822 5821 5821 5821 5821 5821 5821 5821 5820 5820 5819 5819 5818 5818 5817 5816 5816 5815 5815 5814 5813 5812 5811 5810 5809 5808
5799 5800 5801 5801 5802 5803 5805 5806 5807 5807 5808 5809 5809 5810 5810 5811 5812 5812 5813 5813 5814 5815 5815 5815 5816 5816 5816 5817 5817 5817 5818 5818 5818 5819 5819 5819 5820 5820 5821 5821 5821 5822 5822 5822 5822 5822 5822 5822 5822 5822 5822 5822 5823 5823 5823 5823 5822 5822 5822 5822 5822 5822 5822 5822 5822 5822 5822 5822 5821 5821 5821 5821 5820 5820 5820 5820 5819 5819 5819 5819 5819 5819 5819 5818 5818 5818 5817 5817 5816 5816 5815 5814 5814 5813 5812 5812 5811 5810 5809 5808 5807 5807 5806
5796 5797 5798 5799 5800 5801 5802 5803 5804 5805 5806 5806 5807 5807 5807 5808 5809 5810 5811 5811 5812 5812 5813 5813 5813 5814 5814 5815 5815 5815 5816 5816 5817 5817 5817 5817 5818 5818 5818 5819 5819 5819 5820 5820 5820 5820 5820 5820 5820 5820 5820 5821 5821 5821 5821 5821 5821 5820 5820 5820 5820 5820 5820 5820 5820 5820 5819 5819 5819 5819 5818 5818 5818 5817 5817 5817 5817 5817 5817 5817 5817 5817 5817 5816 5816 5815 5815 5814 5813 5813 5812 5812 5811 5811 5810 5809 5808 5808 5807 5806 5805 5804 5803
5794 5795 5796 5797 5798 5799 5800 5801 5802 5802 5803 5804 5804 5805 5805 5806 5807 5807 5808 5809 5809 5810 5811 5811 5812 5812 5812 5812 5813 5813 5813 5814 5814 5814 5815 5815 5815 5816 5816 5817 5817 5817 5817 5817 5818 5818 5818 5818 5818 5818 5818 5818 5818 5819 5819 5819 5818 5818 5818 5818 5817 5818 5818 5818 5817 5817 5817 5817 5817 5816 5816 5815 5815 5815 5815 5815 5815 5815 5814 5814 5814 5814 5814 5814 5813 5813 5812 5812 5811 5810 5809 5809 5808 5808 5807 5807 5806 5805 5804 5803 5802 5802 5801
5792 5793 5794 5795 5796 5797 5798 5799 5799 5800 5801 5801 5802 5802 5803 5803 5804 5805 5806 5806 5807 5807 5808 5809 5809 5809 5810 5810 5811 5811 5811 5812 5812 5812 5812 5813 5813 5813 5814 5814 5814 5815 5815 5815 5815 5816 5816 5816 5816 5816 5816 5816 5816 5817 5817 5817 5816 5816 5816 5816 5815 5815 5815 5815 5815 5815 5815 5814 5814 5813 5812 5812 5812 5812 5812 5812 5812 5812 5812 5812 5812 5812 5812 5811 5811 5810 5809 5809 5808 5807 5807 5806 5806 5805 5805 5804 5803 5803 5802 5801 5800 5799 5798
5790 5792 5792 5793 5794 5795 5796 5797 5797 5797 5798 5799 5799 5800 5801 5801 5802 5802 5803 5804 5804 5805 5806 5806 5807 5807 5807 5808 5808 5809 5809 5809 5809 5810 5810 5811 5811 5811 5811 5812 5812 5812 5812 5813 5813 5813 5813 5814 5814 5814 5814 5814 5814 5814 5814 5814 5814 5814 5813 5813 5813 5813 5813 5813 5813 5812 5812 5812 5811 5811 5810 5810 5810 5810 5810 5810 5810 5810 5809 5809 5809 5809 5809 5808 5808 5807 5807 5806 5806 5805 5804 5803 5803 5803 5802 5802 5801 5800 5800 5799 5798 5797 5796
5790 5792 5792 5792 5793 5793 5794 5794 5795 5796 5796 5797 5797 5798 5798 5799 5799 5800 5800 5801 5802 5802 5803 5804 5804 5805 5805 5806 5806 5806 5806 5807 5807 5807 5807 5808 5808 5808 5809 5809 5809 5810 5810 5810 5811 5811 5811 5811 5811 5811 5812 5812 5812 5812 5812 5812 5811 5811 5811 5811 5811 5811 5811 5811 5810 5810 5810 5809 5809 5809 5808 5808 5807 5807 5807 5807 5807 5807 5807 5807 5807 5807 5806 5805 5805 5804 5804 5803 5803 5802 5802 5801 5801 5801 5800 5799 5799 5798 5797 5796 5795 5794 5793
5789 5790 5790 5790 5791 5791 5792 5792 5793 5793 5794 5795 5795 5796 5796 5797 5797 5798 5798 5798 5799 5799 5800 5801 5801 5802 5802 5803 5803 5803 5803 5804 5804 5804 5805 5805 5806 5806 5806 5806 5807 5807 5807 5807 5808 5808 5808 5808 5808 5808 5808 5809 5809 5809 5809 5809 5809 5808 5808 5808 5808 5808 5808 5808 5808 5807 5807 5807 5806 5806 5806 5806 5805 5805 5805 5805 5805 5805 5805 5804 5804 5804 5803 5802 5802 5802 5801 5801 5800 5799 5799 5798 5797 5797 5798 5797 5796 5795 5795 5794 5793 5792 5791
5787 5787 5788 5788 5788 5788 5789 5790 5791 5791 5792 5792 5793 5793 5794 5795 5795 5795 5796 5796 5796 5797 5797 5798 5798 5799 5800 5800 5800 5800 5801 5801 5801 5802 5802 5802 5803 5803 5803 5803 5804 5804 5805 5805 5805 5805 5805 5805 5805 5805 5805 5806 5806 5806 5806 5806 5806 5806 5806 5806 5806 5806 5806 5805 5805 5804 5804 5804 5804 5804 5803 5803 5803 5803 5803 5803 5802 5802 5802 5802 5802 5801 5800 5800 5799 5798 5798 5797 5797 5797 5796 5795 5795 5794 5794 5795 5795 5794 5793 5791 5790 5789 5788
5783 5784 5785 5785 5785 5786 5786 5787 5788 5789 5789 5790 5791 5792 5792 5792 5792 5793 5793 5793 5793 5794 5794 5795 5796 5796 5797 5797 5797 5797 5798 5798 5798 5799 5799 5800 5800 5800 5801 5801 5801 5802 5802 5802 5802 5802 5802 5802 5802 5802 5802 5802 5802 5803 5803 5803 5803 5803 5803 5803 5803 5802 5802 5802 5802 5802 5802 5802 5801 5801 5801 5801 5801 5801 5800 5800 5800 5800 5799 5799 5799 5798 5797 5797 5796 5796 5795 5795 5794 5794 5793 5792 5792 5791 5791 5792 5792 5792 5791 5790 5789 5787 5786
5780 5781 5781 5782 5783 5783 5784 5784 5786 5787 5787 5788 5789 5789 5790 5790 5790 5790 5791 5791 5791 5791 5791 5792 5792 5793 5794 5794 5795 5795 5795 5795 5796 5796 5797 5797 5797 5798 5798 5798 5799 5799 5799 5799 5799 5799 5799 5799 5799 5799 5799 5799 5799 5800 5800 5800 5800 5800 5800 5800 5800 5799 5799 5799 5799 5799 5799 5799 5799 5798 5798 5798 5798 5798 5797 5797 5797 5797 5797 5796 5796 5795 5795 5794 5793 5792 5792 5792 5791 5791 5790 5789 5788 5787 5787 5787 5787 5788 5788 5787 5786 5785 5784
5778 5779 5779 5780 5781 5781 5782 5783 5785 5785 5785 5786 5787 5787 5787 5787 5787 5788 5788 5788 5788 5788 5788 5789 5790 5790 5791 5791 5792 5792 5792 5792 5793 5793 5794 5795 5795 5795 5796 5796 5796 5797 5797 5797 5797 5797 5796 5796 5796 5796 5796 5796 5796 5797 5797 5797 5797 5797 5797 5797 5797 5796 5796 5796 5797 5797 5797 5796 5796 5796 5796 5795 5795 5795 5795 5794 5794 5794 5793 5793 5792 5792 5791 5791 5790 5789 5789 5788 5788 5787 5787 5786 5785 5784 5784 5783 5783 5783 5785 5784 5783 5782 5780
5776 5777 5777 5778 5779 5780 5781 5782 5783 5783 5783 5784 5784 5785 5785 5785 5785 5785 5785 5785 5785 5786 5786 5786 5787 5787 5787 5788 5789 5789 5789 5790 5790 5791 5792 5792 5792 5793 5793 5793 5793 5794 5794 5794 5793 5793 5793 5793 5792 5792 5792 5793 5793 5794 5794 5794 5794 5794 5794 5794 5794 5793 5793 5794 5794 5794 5794 5793 5793 5793 5792 5792 5792 5792 5791 5791 5791 5791 5790 5790 5789 5788 5788 5787 5787 5786 5786 5785 5784 5784 5783 5782 5781 5781 5781 5780 5780 5780 5780 5780 5779 5778 5777
5774 5775 5775 5776 5777 5778 5779 5781 5781 5781 5781 5782 5782 5782 5782 5783 5783 5783 5783 5783 5783 5783 5783 5784 5784 5784 5784 5785 5786 5786 5787 5787 5788 5788 5789 5789 5790 5790 5790 5790 5791 5791 5790 5790 5790 5790 5790 5789 5789 5788 5789 5790 5791 5791 5791 5791 5791 5791 5791 5791 5791 5791 5791 5791 5791 5791 5791 5790 5790 5790 5789 5789 5789 5788 5788 5788 5787 5787 5787 5786 5786 5785 5785 5784 5783 5782 5782 5781 5781 5780 5779 5779 5778 5777 5777 5777 5777 5776 5776 5775 5774 5774 5773
5771 5772 5772 5773 5774 5775 5776 5777 5778 5778 5778 5779 5779 5780 5780 5780 5780 5780 5780 5780 5781 5781 5781 5781 5781 5781 5781 5782 5782 5783 5783 5784 5785 5785 5786 5786 5787 5787 5787 5787 5787 5787 5787 5787 5787 5787 5786 5785 5785 5785 5785 5786 5787 5788 5788 5788 5788 5788 5788 5788 5788 5788 5788 5787 5787 5787 5787 5787 5787 5787 5786 5786 5786 5785 5785 5784 5784 5783 5783 5783 5782 5782 5781 5781 5780 5779 5778 5778 5777 5776 5776 5775 5774 5774 5774 5774 5773 5773 5772 5772 5771 5771 5769
5769 5770 5770 5771 5772 5772 5773 5774 5774 5775 5776 5776 5777 5777 5778 5778 5778 5777 5777 5778 5778 5778 5778 5778 5778 5778 5779 5779 5779 5780 5781 5781 5782 5782 5783 5783 5784 5784 5784 5785 5785 5784 5784 5783 5783 5782 5782 5781 5781 5781 5782 5783 5784 5784 5785 5785 5785 5785 5785 5785 5785 5785 5785 5784 5784 5784 5784 5783 5783 5783 5783 5783 5782 5782 5782 5781 5780 5780 5780 5779 5779 5778 5777 5777 5776 5776 5775 5774 5773 5773 5772 5772 5771 5771 5771 5771 5770 5770 5769 5769 5768 5767 5767
5767 5767 5768 5769 5770 5770 5771 5772 5772 5772 5773 5774 5774 5775 5776 5777 5777 5776 5775 5776 5776 5776 5776 5776 5776 5776 5776 5776 5777 5777 5778 5778 5779 5780 5780 5780 5781 5782 5782 5782 5782 5781 5781 5779 5779 5778 5778 5778 5778 5779 5779 5780 5781 5781 5781 5782 5782 5782 5782 5782 5782 5782 5782 5781 5781 5781 5780 5780 5780 5780 5780 5779 5779 5778 5778 5777 5777 5777 5777 5776 5776 5775 5774 5773 5772 5772 5771 5770 5770 5769 5768 5768 5767 5767 5767 5767 5767 5767 5766 5766 5765 5764 5763
5764 5765 5766 5767 5767 5768 5769 5769 5770 5770 5771 5771 5772 5772 5773 5773 5773 5773 5773 5773 5773 5773 5773 5773 5774 5774 5774 5774 5775 5775 5776 5776 5777 5777 5778 5778 5778 5779 5779 5779 5778 5778 5777 5775 5775 5775 5776 5776 5777 5777 5777 5777 5777 5778 5778 5778 5778 5778 5779 5779 5779 5779 5778 5778 5777 5777 5777 5777 5777 5776 5776 5776 5775 5775 5774 5774 5773 5773 5773 5773 5772 5772 5771 5770 5769 5768 5767 5767 5766 5766 5765 5764 5764 5764 5763 5763 5763 5763 5762 5762 5762 5761 5760
5762 5763 5764 5765 5765 5766 5767 5767 5768 5768 5768 5769 5769 5769 5770 5770 5771 5771 5771 5771 5771 5771 5771 5771 5772 5772 5772 5773 5773 5773 5774 5774 5774 5775 5775 5775 5775 5776 5776 5775 5775 5774 5774 5772 5772 5773 5774 5774 5774 5774 5774 5774 5774 5775 5775 5775 5775 5775 5776 5776 5776 5776 5775 5775 5774 5774 5773 5773 5773 5773 5772 5772 5771 5771 5771 5770 5770 5770 5770 5769 5769 5768 5767 5767 5766 5765 5765 5764 5763 5762 5762 5761 5760 5760 5760 5759 5759 5759 5759 5758 5758 5757 5757
5760 5761 5762 5763 5763 5764 5765 5765 5766 5766 5766 5767 5767 5767 5767 5768 5769 5770 5769 5768 5768 5768 5769 5769 5770 5770 5770 5771 5771 5772 5772 5772 5772 5772 5772 5772 5772 5772 5772 5772 5772 5772 5772 5771 5771 5771 5772 5772 5772 5772 5772 5772 5772 5772 5772 5772 5772 5772 5772 5772 5772 5772 5772 5771 5771 5770 5770 5770 5770 5769 5769 5768 5768 5767 5767 5767 5767 5767 5766 5766 5765 5764 5764 5763 5763 5762 5762 5761 5760 5760 5759 5758 5758 5757 5757 5756 5756 5756 5755 5755 5754 5754 5753
5758 5759 5760 5760 5761 5762 5762 5763 5763 5764 5764 5764 5764 5764 5764 5765 5766 5766 5767 5766 5766 5766 5767 5767 5768 5768 5768 5768 5769 5769 5770 5770 5770 5770 5770 5770 5770 5770 5769 5769 5769 5769 5769 5769 5769 5769 5769 5769 5769 5769 5769 5769 5769 5768 5768 5768 5769 5769 5769 5769 5769 5768 5768 5767 5767 5767 5767 5766 5766 5766 5765 5765 5765 5765 5764 5764 5763 5763 5762 5762 5761 5761 5760 5760 5759 5759 5758 5758 5757 5757 5757 5756 5755 5755 5754 5754 5753 5753 5752 5752 5751 5750 5750
5755 5756 5757 5758 5758 5759 5760 5761 5761 5762 5762 5762 5762 5762 5762 5762 5762 5763 5763 5764 5764 5764 5764 5765 5766 5766 5766 5766 5767 5767 5767 5767 5767 5767 5767 5767 5767 5767 5767 5767 5767 5767 5767 5767 5766 5766 5766 5766 5766 5766 5766 5766 5766 5765 5765 5765 5766 5766 5766 5766 5766 5765 5764 5763 5763 5763 5763 5763 5762 5762 5762 5762 5762 5761 5761 5760 5760 5759 5759 5758 5757 5757 5757 5756 5756 5755 5755 5755 5754 5754 5754 5754 5753 5753 5752 5752 5751 5750 5749 5749 5748 5747 5747
5752 5753 5754 5755 5756 5757 5757 5758 5759 5759 5759 5760 5760 5760 5760 5760 5760 5761 5762 5761 5761 5762 5762 5763 5764 5764 5764 5764 5764 5764 5764 5764 5764 5765 5766 5765 5765 5764 5764 5764 5764 5764 5764 5764 5763 5763 5763 5763 5763 5763 5762 5762 5762 5762 5762 5762 5762 5762 5762 5762 5762 5761 5761 5760 5760 5760 5760 5759 5759 5759 5759 5758 5758 5758 5757 5757 5756 5756 5755 5755 5754 5754 5753 5753 5752 5752 5752 5751 5751 5751 5751 5751 5751 5750 5750 5749 5748 5748 5747 5746 5745 5745 5744
5750 5751 5752 5752 5753 5754 5755 5755 5756 5757 5757 5757 5758 5758 5758 5758 5758 5759 5759 5759 5760 5761 5762 5761 5760 5760 5760 5760 5761 5761 5760 5760 5761 5762 5762 5762 5762 5762 5761 5761 5761 5761 5761 5760 5760 5760 5761 5761 5760 5759 5759 5759 5758 5758 5758 5758 5758 5758 5758 5758 5758 5757 5757 5757 5757 5757 5757 5756 5756 5755 5755 5755 5755 5755 5754 5754 5753 5752 5752 5751 5751 5750 5750 5750 5749 5749 5748 5748 5748 5747 5747 5747 5747 5747 5747 5746 5746 5745 5744 5743 5743 5742 5742
5747 5748 5749 5750 5751 5751 5752 5752 5753 5754 5755 5755 5756 5756 5756 5756 5756 5756 5756 5756 5757 5757 5757 5757 5758 5758 5758 5758 5758 5758 5759 5759 5759 5760 5760 5760 5759 5759 5758 5758 5758 5758 5757 5757 5757 5757 5758 5758 5757 5756 5756 5756 5756 5755 5755 5755 5755 5754 5755 5755 5754 5754 5754 5754 5754 5753 5753 5753 5752 5752 5752 5752 5752 5752 5751 5751 5750 5749 5749 5748 5748 5747 5747 5747 5746 5746 5745 5745 5745 5744 5744 5744 5744 5744 5743 5743 5742 5742 5741 5741 5740 5739 5739
5745 5746 5747 5747 5748 5749 5750 5750 5751 5752 5752 5753 5753 5753 5753 5753 5753 5753 5754 5754 5754 5755 5755 5755 5756 5756 5756 5756 5756 5757 5757 5757 5757 5757 5757 5757 5757 5757 5756 5756 5755 5755 5755 5755 5755 5755 5755 5754 5753 5753 5753 5754 5754 5753 5752 5752 5752 5751 5752 5752 5752 5751 5751 5751 5751 5750 5750 5750 5749 5749 5749 5749 5748 5748 5748 5747 5747 5747 5746 5745 5745 5744 5744 5743 5743 5742 5742 5742 5742 5741 5741 5741 5740 5740 5740 5739 5739 5738 5738 5737 5737 5736 5736
5743 5743 5744 5744 5745 5746 5747 5748 5749 5749 5750 5751 5751 5751 5751 5751 5751 5751 5752 5752 5752 5752 5752 5753 5753 5753 5754 5754 5754 5754 5754 5754 5754 5754 5754 5754 5754 5754 5754 5753 5753 5753 5753 5752 5753 5753 5752 5752 5751 5751 5751 5751 5751 5751 5750 5750 5750 5749 5749 5749 5749 5748 5748 5748 5747 5747 5747 5747 5747 5747 5746 5746 5746 5745 5745 5745 5744 5743 5743 5742 5742 5741 5741 5740 5740 5739 5739 5739 5738 5738 5737 5737 5737 5736 5736 5736 5735 5735 5735 5734 5734 5733 5733
5740 5741 5742 5742 5743 5743 5744 5745 5746 5747 5747 5748 5748 5748 5748 5748 5749 5749 5749 5750 5750 5750 5750 5750 5750 5751 5751 5751 5752 5752 5752 5752 5752 5752 5752 5752 5752 5752 5751 5751 5751 5750 5750 5750 5750 5750 5749 5749 5749 5748 5748 5748 5747 5748 5748 5748 5747 5747 5747 5747 5746 5746 5745 5745 5745 5745 5744 5744 5744 5744 5744 5744 5743 5743 5742 5742 5741 5741 5740 5739 5739 5738 5737 5737 5737 5736 5736 5735 5735 5735 5734 5734 5733 5732 5732 5732 5731 5731 5731 5730 5730 5730 5730
5737 5738 5739 5740 5740 5741 5742 5742 5743 5744 5745 5746 5746 5746 5746 5746 5746 5747 5747 5747 5747 5747 5748 5748 5748 5748 5748 5748 5749 5749 5749 5749 5749 5749 5749 5749 5749 5749 5749 5748 5748 5748 5747 5747 5747 5747 5746 5746 5746 5746 5746 5745 5745 5745 5746 5746 5746 5746 5745 5745 5744 5743 5743 5742 5742 5742 5742 5742 5742 5742 5742 5741 5741 5740 5739 5739 5738 5737 5737 5736 5736 5735 5734 5734 5733 5733 5732 5732 5732 5731 5731 5730 5730 5729 5728 5728 5727 5727 5727 5727 5727 5726 5726
5734 5735 5736 5737 5738 5738 5739 5740 5741 5742 5742 5743 5743 5743 5743 5743 5743 5743 5744 5744 5745 5745 5745 5746 5746 5746 5746 5746 5747 5747 5746 5746 5746 5746 5746 5746 5746 5747 5746 5745 5745 5745 5745 5744 5744 5744 5743 5743 5743 5743 5743 5742 5742 5742 5742 5742 5743 5743 5743 5742 5742 5741 5741 5740 5740 5739 5739 5739 5739 5739 5739 5738 5738 5737 5737 5736 5735 5734 5733 5733 5732 5732 5731 5731 5730 5730 5729 5729 5728 5728 5727 5727 5727 5726 5725 5725 5724 5724 5723 5723 5723 5723 5723
5732 5732 5733 5734 5735 5736 5737 5737 5738 5738 5739 5739 5740 5740 5740 5740 5741 5741 5741 5742 5742 5742 5742 5742 5742 5743 5743 5743 5743 5743 5743 5743 5743 5743 5743 5743 5743 5743 5743 5742 5742 5742 5741 5741 5741 5741 5740 5740 5740 5740 5739 5739 5739 5739 5739 5739 5740 5740 5740 5740 5739 5738 5738 5737 5737 5737 5736 5736 5736 5736 5735 5735 5735 5734 5733 5732 5732 5731 5730 5729 5729 5728 5728 5727 5727 5727 5726 5726 5725 5725 5725 5724 5724 5723 5722 5722 5721 5721 5721 5720 5720 5720 5720